SYMPHONIE 2 1 08132U 75077A 21063.84160862 .00000123 00000-0 00000-0 0 9993 2 08132 8.8671 299.5776 0006177 23.4965 175.6593 0.99969565123157 DELTA 1 R/B(2) 1 08134U 75077C 21063.40828706 .00000082 00000-0 37445-3 0 9995 2 08134 13.2011 112.8610 7149813 85.1913 345.8220 2.37742548235292